map of PGD home
PGD - Airport
Location
City:  Punta Gorda, Florida, United States
ICAO:KPGD
IATA:PGD
FAA LID:PGD

Details
Type:Airport (Part 139 Class I)
Use:Public/Civil
Latitude:2655'08"N (26.918938)
Longitude:8159'27"W (-81.990925)
Datum:WGS 1984
Elevation:25 ft (8 m)
Variation:5.83W (WMM2015 magnetic declination)
-0.10 annual change
Runways:3
Longest:7193 × 150 ft (2192 × 45.5 m), paved

Time
Time Zone:UTC-5 (DST-4)
Local Time:

Weather
METAR:KPGD 190053Z AUTO 09009KT 10SM CLR 28/22 A3016 RMK AO2 SLP214 T02830217
TAF:KPGD 182324Z 1900/1924 08010KT P6SM VCSH SCT050
FM190300 08004KT P6SM SKC
FM191400 10008KT P6SM SCT025
FM191700 08008KT P6SM SCT040

Related Locations
Nearby:
Farthest:USL: 11493 mi / 18496 km
Useless Loop, WA, AU

Find:

   beyond  
but within

Other Information
Maps:
NOTAMs:
Links:
Sources:

  
  • flag of United States
  • flag of Florida
  

Airport Diagram

Airport diagram for PGD

Airport diagram PDF

Sectional Chart

Flight Planning
at skyvector.com

Satellite Image

Google Maps Satellite view

 

Copyright © 2004-2018 Karl L. Swartz. All rights reserved.
The Great Circle Mapper name and logo are trademarks of the Great Circle Mapper.
All other trademarks mentioned herein belong to their respective owners.
Please see credits for attibutions and further copyright information.

  Follow gcmap on Facebook Follow gcmap on Twitter Follow gcmap on Google+ GCmap on LinkedIn

hCard Microformat

Geo Microformat